Time,TemperatureF,DewpointF,PressureIn,WindDirection,WindDirectionDegrees,WindSpeedMPH,WindSpeedGustMPH,Humidity,HourlyPrecipIn,Conditions,Clouds,dailyrainin,SolarRadiationWatts/m^2,SoftwareType,DateUTC
2013-03-24 00:02:00,40.0,32.0,-100.00,ENE,78,4.0,13.0,73,0.00,,,0.00,0.000000,,2013-03-24 07:02:00,
2013-03-24 00:11:00,38.0,31.0,-100.00,SE,129,3.0,5.0,75,0.00,,,0.00,0.000000,,2013-03-24 07:11:00,
2013-03-24 00:32:00,38.0,31.0,-100.00,SE,129,3.0,5.0,75,0.00,,,0.00,0.000000,,2013-03-24 07:32:00,
2013-03-24 00:42:00,38.0,31.0,-100.00,SE,129,3.0,5.0,75,0.00,,,0.00,0.000000,,2013-03-24 07:42:00,
2013-03-24 00:52:00,38.0,31.0,-100.00,SE,129,3.0,5.0,75,0.00,,,0.00,0.000000,,2013-03-24 07:52:00,
2013-03-24 01:02:00,38.0,31.0,-100.00,SE,129,3.0,5.0,75,0.00,,,0.00,0.000000,,2013-03-24 08:02:00,
2013-03-24 01:11:00,36.0,30.0,-100.00,North,349,3.0,5.0,80,0.00,,,0.00,0.000000,,2013-03-24 08:11:00,
2013-03-24 01:32:00,36.0,30.0,-100.00,North,349,3.0,5.0,80,0.00,,,0.00,0.000000,,2013-03-24 08:32:00,
2013-03-24 01:42:00,36.0,30.0,-100.00,North,349,3.0,5.0,80,0.00,,,0.00,0.000000,,2013-03-24 08:42:00,
2013-03-24 01:52:00,36.0,30.0,-100.00,North,349,3.0,5.0,80,0.00,,,0.00,0.000000,,2013-03-24 08:52:00,
2013-03-24 02:02:00,36.0,30.0,-100.00,North,349,3.0,5.0,80,0.00,,,0.00,0.000000,,2013-03-24 09:02:00,
2013-03-24 02:11:00,38.0,32.0,-100.00,ESE,122,1.0,4.0,79,0.00,,,0.00,0.000000,,2013-03-24 09:11:00,
2013-03-24 02:33:00,38.0,32.0,-100.00,ESE,122,1.0,4.0,79,0.00,,,0.00,0.000000,,2013-03-24 09:33:00,
2013-03-24 02:43:00,38.0,32.0,-100.00,ESE,122,1.0,4.0,79,0.00,,,0.00,0.000000,,2013-03-24 09:43:00,
2013-03-24 02:52:00,38.0,32.0,-100.00,ESE,122,1.0,4.0,79,0.00,,,0.00,0.000000,,2013-03-24 09:52:00,
2013-03-24 03:02:00,38.0,32.0,-100.00,ESE,122,1.0,4.0,79,0.00,,,0.00,0.000000,,2013-03-24 10:02:00,
2013-03-24 03:11:00,35.0,31.0,-100.00,West,280,0.0,4.0,84,0.00,,,0.00,0.000000,,2013-03-24 10:11:00,
2013-03-24 03:42:00,35.0,31.0,-100.00,West,280,0.0,4.0,84,0.00,,,0.00,0.000000,,2013-03-24 10:42:00,
2013-03-24 03:52:00,35.0,31.0,-100.00,West,280,0.0,4.0,84,0.00,,,0.00,0.000000,,2013-03-24 10:52:00,
2013-03-24 04:02:00,35.0,31.0,-100.00,West,280,0.0,4.0,84,0.00,,,0.00,0.000000,,2013-03-24 11:02:00,
2013-03-24 04:11:00,34.0,32.0,-100.00,ESE,120,6.0,6.0,91,0.00,,,0.00,0.000000,,2013-03-24 11:11:00,
2013-03-24 04:33:00,34.0,32.0,-100.00,ESE,120,6.0,6.0,91,0.00,,,0.00,0.000000,,2013-03-24 11:33:00,
2013-03-24 04:42:00,34.0,32.0,-100.00,ESE,120,6.0,6.0,91,0.00,,,0.00,0.000000,,2013-03-24 11:42:00,
2013-03-24 04:52:00,34.0,32.0,-100.00,ESE,120,6.0,6.0,91,0.00,,,0.00,0.000000,,2013-03-24 11:52:00,
2013-03-24 05:02:00,34.0,32.0,-100.00,ESE,120,6.0,6.0,91,0.00,,,0.00,0.000000,,2013-03-24 12:02:00,
2013-03-24 05:11:00,33.0,31.0,-100.00,ESE,112,10.0,13.0,92,0.00,,,0.00,0.000000,,2013-03-24 12:11:00,
2013-03-24 05:32:00,33.0,31.0,-100.00,ESE,112,10.0,13.0,92,0.00,,,0.00,0.000000,,2013-03-24 12:32:00,
2013-03-24 05:42:00,33.0,31.0,-100.00,ESE,112,10.0,13.0,92,0.00,,,0.00,0.000000,,2013-03-24 12:42:00,
2013-03-24 05:52:00,33.0,31.0,-100.00,ESE,112,10.0,13.0,92,0.00,,,0.00,0.000000,,2013-03-24 12:52:00,
2013-03-24 06:02:00,33.0,31.0,-100.00,ESE,112,10.0,13.0,92,0.00,,,0.00,0.000000,,2013-03-24 13:02:00,
2013-03-24 06:11:00,35.0,33.0,-100.00,ESE,118,10.0,14.0,93,0.00,,,0.00,0.000000,,2013-03-24 13:11:00,
2013-03-24 06:43:00,35.0,33.0,-100.00,ESE,118,10.0,14.0,93,0.00,,,0.00,0.000000,,2013-03-24 13:43:00,
2013-03-24 06:52:00,35.0,33.0,-100.00,ESE,118,10.0,14.0,93,0.00,,,0.00,0.000000,,2013-03-24 13:52:00,
2013-03-24 07:02:00,35.0,33.0,-100.00,ESE,118,10.0,14.0,93,0.00,,,0.00,0.000000,,2013-03-24 14:02:00,
2013-03-24 07:11:00,34.0,32.0,-100.00,ESE,113,13.0,20.0,93,0.00,,,0.00,0.000000,,2013-03-24 14:11:00,
2013-03-24 07:33:00,34.0,32.0,-100.00,ESE,113,13.0,20.0,93,0.00,,,0.00,0.000000,,2013-03-24 14:33:00,
2013-03-24 07:42:00,34.0,32.0,-100.00,ESE,113,13.0,20.0,93,0.00,,,0.00,0.000000,,2013-03-24 14:42:00,
2013-03-24 07:52:00,34.0,32.0,-100.00,ESE,113,13.0,20.0,93,0.00,,,0.00,0.000000,,2013-03-24 14:52:00,
2013-03-24 08:02:00,34.0,32.0,-100.00,ESE,113,13.0,20.0,93,0.00,,,0.00,0.000000,,2013-03-24 15:02:00,
2013-03-24 08:11:00,35.0,32.0,-100.00,SE,125,10.0,17.0,90,0.00,,,0.00,44.000000,,2013-03-24 15:11:00,
2013-03-24 08:43:00,35.0,32.0,-100.00,SE,125,10.0,17.0,90,0.00,,,0.00,44.000000,,2013-03-24 15:43:00,
2013-03-24 08:53:00,35.0,32.0,-100.00,SE,125,10.0,17.0,90,0.00,,,0.00,44.000000,,2013-03-24 15:53:00,
2013-03-24 09:02:00,35.0,32.0,-100.00,SE,125,10.0,17.0,90,0.00,,,0.00,44.000000,,2013-03-24 16:02:00,
2013-03-24 09:11:00,38.0,34.0,-100.00,WSW,255,3.0,13.0,86,0.00,,,0.00,198.000000,,2013-03-24 16:11:00,
2013-03-24 09:43:00,38.0,34.0,-100.00,WSW,255,3.0,13.0,86,0.00,,,0.00,198.000000,,2013-03-24 16:43:00,
2013-03-24 09:52:00,38.0,34.0,-100.00,WSW,255,3.0,13.0,86,0.00,,,0.00,198.000000,,2013-03-24 16:52:00,
2013-03-24 10:02:00,38.0,34.0,-100.00,WSW,255,3.0,13.0,86,0.00,,,0.00,198.000000,,2013-03-24 17:02:00,
2013-03-24 10:11:00,45.0,37.0,-100.00,East,96,2.0,6.0,74,0.00,,,0.00,509.000000,,2013-03-24 17:11:00,
2013-03-24 10:33:00,45.0,37.0,-100.00,East,96,2.0,6.0,74,0.00,,,0.00,509.000000,,2013-03-24 17:33:00,
2013-03-24 10:42:00,45.0,37.0,-100.00,East,96,2.0,6.0,74,0.00,,,0.00,509.000000,,2013-03-24 17:42:00,
2013-03-24 10:53:00,45.0,37.0,-100.00,East,96,2.0,6.0,74,0.00,,,0.00,509.000000,,2013-03-24 17:53:00,
2013-03-24 11:02:00,45.0,37.0,-100.00,East,96,2.0,6.0,74,0.00,,,0.00,509.000000,,2013-03-24 18:02:00,
2013-03-24 11:11:00,46.0,36.0,-100.00,NW,321,3.0,8.0,69,0.00,,,0.00,648.000000,,2013-03-24 18:11:00,
2013-03-24 11:33:00,46.0,36.0,-100.00,NW,321,3.0,8.0,69,0.00,,,0.00,648.000000,,2013-03-24 18:33:00,
2013-03-24 11:43:00,46.0,36.0,-100.00,NW,321,3.0,8.0,69,0.00,,,0.00,648.000000,,2013-03-24 18:43:00,
2013-03-24 11:52:00,46.0,36.0,-100.00,NW,321,3.0,8.0,69,0.00,,,0.00,648.000000,,2013-03-24 18:52:00,
2013-03-24 12:02:00,46.0,36.0,-100.00,NW,321,3.0,8.0,69,0.00,,,0.00,648.000000,,2013-03-24 19:02:00,
2013-03-24 12:11:00,49.0,39.0,-100.00,NNW,339,2.0,7.0,68,0.00,,,0.00,642.000000,,2013-03-24 19:11:00,
2013-03-24 12:32:00,49.0,39.0,-100.00,NNW,339,2.0,7.0,68,0.00,,,0.00,642.000000,,2013-03-24 19:32:00,
2013-03-24 12:43:00,49.0,39.0,-100.00,NNW,339,2.0,7.0,68,0.00,,,0.00,642.000000,,2013-03-24 19:43:00,
2013-03-24 12:53:00,49.0,39.0,-100.00,NNW,339,2.0,7.0,68,0.00,,,0.00,642.000000,,2013-03-24 19:53:00,
2013-03-24 13:02:00,49.0,39.0,-100.00,NNW,339,2.0,7.0,68,0.00,,,0.00,642.000000,,2013-03-24 20:02:00,
2013-03-24 13:11:00,54.0,39.0,-100.00,NW,320,3.0,12.0,57,0.00,,,0.00,800.000000,,2013-03-24 20:11:00,
2013-03-24 13:43:00,54.0,39.0,-100.00,NW,320,3.0,12.0,57,0.00,,,0.00,800.000000,,2013-03-24 20:43:00,
2013-03-24 13:53:00,54.0,39.0,-100.00,NW,320,3.0,12.0,57,0.00,,,0.00,800.000000,,2013-03-24 20:53:00,
2013-03-24 14:02:00,54.0,39.0,-100.00,NW,320,3.0,12.0,57,0.00,,,0.00,800.000000,,2013-03-24 21:02:00,
2013-03-24 14:11:00,52.0,38.0,-100.00,NW,324,4.0,8.0,59,0.00,,,-99.99,693.000000,,2013-03-24 21:11:00,
2013-03-24 14:33:00,52.0,38.0,-100.00,NW,324,4.0,8.0,59,0.00,,,-99.99,693.000000,,2013-03-24 21:33:00,
2013-03-24 14:43:00,52.0,38.0,-100.00,NW,324,4.0,8.0,59,0.00,,,-99.99,693.000000,,2013-03-24 21:43:00,
2013-03-24 14:53:00,52.0,38.0,-100.00,NW,324,4.0,8.0,59,0.00,,,-99.99,693.000000,,2013-03-24 21:53:00,
2013-03-24 15:02:00,52.0,38.0,-100.00,NW,324,4.0,8.0,59,0.00,,,-99.99,693.000000,,2013-03-24 22:02:00,
2013-03-24 15:11:00,51.0,38.0,-100.00,NW,309,6.0,9.0,62,0.00,,,0.00,604.000000,,2013-03-24 22:11:00,
2013-03-24 15:33:00,51.0,38.0,-100.00,NW,309,6.0,9.0,62,0.00,,,0.00,604.000000,,2013-03-24 22:33:00,
2013-03-24 15:43:00,51.0,38.0,-100.00,NW,309,6.0,9.0,62,0.00,,,0.00,604.000000,,2013-03-24 22:43:00,
2013-03-24 15:52:00,51.0,38.0,-100.00,NW,309,6.0,9.0,62,0.00,,,0.00,604.000000,,2013-03-24 22:52:00,
2013-03-24 16:02:00,51.0,38.0,-100.00,NW,309,6.0,9.0,62,0.00,,,0.00,604.000000,,2013-03-24 23:02:00,
2013-03-24 16:11:00,54.0,39.0,-100.00,NW,313,6.0,12.0,56,0.00,,,0.00,606.000000,,2013-03-24 23:11:00,
2013-03-24 16:32:00,54.0,39.0,-100.00,NW,313,6.0,12.0,56,0.00,,,0.00,606.000000,,2013-03-24 23:32:00,
2013-03-24 16:42:00,54.0,39.0,-100.00,NW,313,6.0,12.0,56,0.00,,,0.00,606.000000,,2013-03-24 23:42:00,
2013-03-24 16:52:00,54.0,39.0,-100.00,NW,313,6.0,12.0,56,0.00,,,0.00,606.000000,,2013-03-24 23:52:00,
2013-03-24 17:02:00,54.0,39.0,-100.00,NW,313,6.0,12.0,56,0.00,,,0.00,606.000000,,2013-03-25 00:02:00,
2013-03-24 18:11:00,48.0,38.0,-100.00,NNW,348,8.0,13.0,68,-99.99,,,0.00,136.000000,,2013-03-25 01:11:00,
2013-03-24 18:42:00,48.0,38.0,-100.00,NNW,348,8.0,13.0,68,-99.99,,,0.00,136.000000,,2013-03-25 01:42:00,
2013-03-24 18:52:00,48.0,38.0,-100.00,NNW,348,8.0,13.0,68,-99.99,,,0.00,136.000000,,2013-03-25 01:52:00,
2013-03-24 19:02:00,48.0,38.0,-100.00,NNW,348,8.0,13.0,68,-99.99,,,0.00,136.000000,,2013-03-25 02:02:00,
2013-03-24 19:11:00,47.0,36.0,-100.00,NNW,343,9.0,14.0,66,0.00,,,0.00,54.000000,,2013-03-25 02:11:00,
2013-03-24 19:43:00,47.0,36.0,-100.00,NNW,343,9.0,14.0,66,0.00,,,0.00,54.000000,,2013-03-25 02:43:00,
2013-03-24 19:52:00,47.0,36.0,-100.00,NNW,343,9.0,14.0,66,0.00,,,0.00,54.000000,,2013-03-25 02:52:00,
2013-03-24 20:02:00,47.0,36.0,-100.00,NNW,343,9.0,14.0,66,0.00,,,0.00,54.000000,,2013-03-25 03:02:00,
2013-03-24 20:11:00,46.0,37.0,-100.00,NNW,346,10.0,13.0,70,0.00,,,0.00,6.000000,,2013-03-25 03:11:00,
2013-03-24 20:34:00,46.0,37.0,-100.00,NNW,346,10.0,13.0,70,0.00,,,0.00,6.000000,,2013-03-25 03:34:00,
2013-03-24 20:43:00,46.0,37.0,-100.00,NNW,346,10.0,13.0,70,0.00,,,0.00,6.000000,,2013-03-25 03:43:00,
2013-03-24 20:53:00,46.0,37.0,-100.00,NNW,346,10.0,13.0,70,0.00,,,0.00,6.000000,,2013-03-25 03:53:00,
2013-03-24 21:02:00,46.0,37.0,-100.00,NNW,346,10.0,13.0,70,0.00,,,0.00,6.000000,,2013-03-25 04:02:00,
2013-03-24 21:11:00,46.0,39.0,-100.00,NNW,339,8.0,13.0,76,0.00,,,0.00,0.000000,,2013-03-25 04:11:00,
2013-03-24 21:43:00,46.0,39.0,-100.00,NNW,339,8.0,13.0,76,0.00,,,0.00,0.000000,,2013-03-25 04:43:00,
2013-03-24 21:52:00,46.0,39.0,-100.00,NNW,339,8.0,13.0,76,0.00,,,0.00,0.000000,,2013-03-25 04:52:00,
2013-03-24 22:02:00,46.0,39.0,-100.00,NNW,339,8.0,13.0,76,0.00,,,0.00,0.000000,,2013-03-25 05:02:00,
2013-03-24 22:11:00,45.0,37.0,-100.00,ENE,69,7.0,11.0,73,0.00,,,0.00,0.000000,,2013-03-25 05:11:00,
2013-03-24 22:33:00,45.0,37.0,-100.00,ENE,69,7.0,11.0,73,0.00,,,0.00,0.000000,,2013-03-25 05:33:00,
2013-03-24 22:42:00,45.0,37.0,-100.00,ENE,69,7.0,11.0,73,0.00,,,0.00,0.000000,,2013-03-25 05:42:00,
2013-03-24 22:52:00,45.0,37.0,-100.00,ENE,69,7.0,11.0,73,0.00,,,0.00,0.000000,,2013-03-25 05:52:00,
2013-03-24 23:02:00,45.0,37.0,-100.00,ENE,69,7.0,11.0,73,0.00,,,0.00,0.000000,,2013-03-25 06:02:00,
2013-03-24 23:11:00,43.0,37.0,-100.00,NW,322,8.0,12.0,79,0.00,,,0.00,0.000000,,2013-03-25 06:11:00,
2013-03-24 23:33:00,43.0,37.0,-100.00,NW,322,8.0,12.0,79,0.00,,,0.00,0.000000,,2013-03-25 06:33:00,
2013-03-24 23:42:00,43.0,37.0,-100.00,NW,322,8.0,12.0,79,0.00,,,0.00,0.000000,,2013-03-25 06:42:00,
2013-03-24 23:52:00,43.0,37.0,-100.00,NW,322,8.0,12.0,79,0.00,,,0.00,0.000000,,2013-03-25 06:52:00,